Flag for Spain Weather past 2 weeks in Almería, Spain

Now
88 °F

Passing clouds.


Feels Like: 97 °F
Forecast: 75 / 85 °F
Wind: 8 mph from Southwest

Location: Almeria / Aeropuerto

Current Time: Jul 30, 2015 at 6:23:50 PM

Latest Report: Jul 30, 2015 at 5:00 PM


Visibility: 13 mi

Pressure: 29.79 "Hg

Humidity: 64%

Dew point: 74 °F

Location of AlmeríaLocation

Historic Weather in Almería — Graph

°F

Almería temperature yesterday

Maximum temperature yesterday: 90 °F (at 2:00 PM)
Minimum temperature yesterday: 80 °F (at 6:00 AM)
Average temperature yesterday: 84 °F

Past Weeks' High & Low Weather Summary

 TemperatureHumidityPressure
High100 °F (Jul 17, 6:00 PM)89% (Jul 25, 6:00 AM)30.05 "Hg (Jul 25, 6:00 AM)
Low74 °F (Jul 28, 6:00 AM)20% (Jul 17, 12:00 PM)29.76 "Hg (Jul 29, 7:00 PM)
Average84 °F68%29.92 "Hg
* Reported Jul 15 5:00 PM — Jul 30 5:00 PM, Almería, Weather by CustomWeather, © 2015

Note: Actual official high and low records may vary slightly from our data, if they occured in-between our weather recording intervals... More about our weather records

Advertising

Almería weather history for previous 24 hours

 ConditionsComfort  
Time TempWeatherWind HumidityBarometerVisibility
5:00 PM
Thu, Jul 30
88 °FPassing clouds.8 mph64%29.79 "Hg12 mi
4:00 PM88 °FWarm.9 mph63%29.81 "HgN/A
3:00 PM88 °FWarm.10 mph64%29.82 "HgN/A
2:00 PM87 °FPassing clouds.9 mph67%29.82 "Hg9 mi
1:00 PM88 °FHot.9 mph65%29.83 "HgN/A
12:00 PM87 °FWarm.10 mph66%29.83 "HgN/A
11:00 AM86 °FPassing clouds.6 mph67%29.81 "Hg9 mi
10:00 AM86 °FWarm.5 mph67%29.80 "HgN/A
9:00 AM82 °FWarm.5 mph76%29.81 "HgN/A
8:00 AM78 °FScattered clouds.5 mph84%29.78 "Hg9 mi
7:00 AM78 °FWarm.2 mph84%29.78 "HgN/A
6:00 AM78 °FWarm.3 mph83%29.77 "HgN/A
4:00 AM79 °FWarm.5 mph82%29.78 "HgN/A
3:00 AM79 °FWarm.2 mph84%29.79 "HgN/A
2:00 AM80 °FWarm.6 mph84%29.82 "HgN/A
1:00 AM80 °FWarm.2 mph84%29.82 "HgN/A
12:00 AM80 °FWarm.No wind83%29.82 "HgN/A
11:00 PM
Wed, Jul 29
81 °FWarm.No wind82%29.82 "HgN/A
10:00 PM81 °FWarm.6 mph81%29.82 "HgN/A
9:00 PM82 °FWarm.7 mph79%29.79 "HgN/A
8:00 PM85 °FSunny.5 mph75%29.77 "Hg6 mi
7:00 PM87 °FWarm.6 mph71%29.76 "HgN/A
6:00 PM88 °FHot.9 mph69%29.78 "HgN/A
Weather by CustomWeather, © 2015

See weather overviewHow to use our weather pages